Find Starlink 33745

NORAD ID: 63714 Int'l Des: 2025-087 Owner: SPXS Country: US Constellation: starlink operational
LEOCIRCULAR

現在のビュー

3D地球を読み込み中...

About Starlink 33745

Starlink 33745 (NORAD 63714) is a starlink constellation satellite (v2 mini) launched Apr 28, 2025 by SPXS of US. It operates in LEO, CIRCULAR orbit with a mass of 575.00 kg.

Starlink 33745について

説明を読み込み中...

次回通過

Passes for default location (London). Set your location on the main map for personalized predictions.

高度履歴

Loading altitude history...

軌道要素

1 63714U 25087T 26169.08525375 .00019105 00000-0 65559-3 0 9991
2 63714 53.1595 113.0116 0001805 127.2809 232.8357 15.30195271 64573
Epoch: Jun 18, 2026 • Age: 13 hours

現在のステータス

高度 476.5 km
速度 7.63 km/s
衛星直下点 -6.36°S, 157.25°E
打ち上げ日 Apr 28, 2025
運用期間 1.1 years
タイプ internet

技術仕様

分類 Payload
質量 575.00 kg
乾燥質量 530.00 kg
総質量 575.00 kg
長さ 0.30 m
直径 4.10 m
スパン 29.00 m
形状 Box + pan
製造者 SPXS
バスタイプ Starlink V2MO
フェーズステータス In Orbit
所有者/国 SPXS/US

Most Searched